Wind_Speed
24 23 21 19 14 14 11 10 10 13 12 11 10 9 8 9 8 7 6 6 7 7
25 25 23 20 21 14 13 13 13 16 18 16 14 12 10 10 10 7 8 10 11 11
27 26 22 20 18 20 18 18 17 17 19 19 18 18 16 13 13 11 10 11 10 11
28 27 27 24 25 23 22 21 22 26 26 22 19 16 14 12 9 11 10 12 12 12
28 30 30 30 29 29 30 29 32 30 25 21 20 19 16 14 13 14 13 14 15 14
33 32 32 34 34 36 31 32 32 29 26 26 25 21 18 16 14 14 14 13 14 14
33 33 34 36 38 35 36 37 33 29 28 25 23 19 16 16 16 16 15 14 15 14
31 32 33 36 38 38 37 39 35 31 27 23 20 18 17 17 17 17 16 15 14 15
32 32 34 34 35 32 32 28 24 24 24 24 23 20 22 19 17 18 18 16 14 17
31 32 32 32 31 33 32 26 25 30 25 20 19 20 22 21 19 19 17 16 16 15
30 29 28 29 31 30 30 32 28 25 23 19 18 20 18 18 21 20 21 18 17 16
28 29 27 27 26 26 28 29 27 24 21 19 18 20 23 22 20 21 21 20 18 17
28 27 25 24 22 19 19 21 20 20 21 20 19 21 23 23 25 24 25 18 17 21
25 24 21 19 17 15 13 14 19 21 20 20 17 18 22 24 21 20 17 16 17 17
Wind_Direction
203 209 213 210 222 201 216 199 178 195 204 213 209 207 204 202 218 214 228 238 255 281
199 210 210 213 202 212 201 203 196 198 198 201 204 209 210 216 208 236 239 250 240 251
201 204 212 203 206 207 201 206 189 199 205 201 198 196 199 212 219 220 242 252 258 259
200 200 201 206 201 200 203 200 200 201 202 194 194 202 200 217 239 217 225 246 266 260
197 198 199 201 203 198 204 201 201 204 198 191 187 197 185 216 219 223 231 237 238 245
199 197 198 198 202 203 202 203 204 200 194 190 189 195 195 203 223 232 234 236 237 239
200 199 198 198 201 202 203 203 199 197 194 194 197 197 205 197 219 234 238 236 242 245
197 200 198 200 200 203 206 207 199 192 192 198 207 201 208 205 216 229 237 239 240 246
191 193 198 199 203 211 219 218 207 194 199 205 216 225 207 201 222 231 236 240 246 255
185 186 190 198 205 217 222 218 211 205 205 210 219 223 205 207 219 230 239 236 245 247
179 185 189 198 208 218 222 220 215 209 209 219 227 222 209 208 228 231 242 242 244 247
184 185 192 204 214 219 217 214 209 217 218 216 223 223 217 219 225 231 240 243 243 239
190 191 198 205 212 219 221 221 212 214 213 222 227 230 228 226 233 239 242 237 244 257
187 190 196 198 202 204 211 200 201 213 218 228 231 224 222 235 227 246 246 241 250 263
Height
793 797 800 803 804 809 811 813 815 819 822 825 826 828 829 830 833 833 835 836 836 834
787 791 794 798 801 804 806 807 812 814 814 816 819 823 826 827 828 830 832 833 834 834
780 786 790 792 795 798 800 803 805 810 810 809 813 814 817 822 825 827 829 830 830 831
773 779 783 786 788 791 794 797 799 797 799 802 809 815 817 819 822 824 826 828 829 829
765 770 774 778 781 783 785 787 787 791 796 801 802 810 809 815 815 818 819 821 823 824
755 760 764 768 771 773 776 779 781 786 792 793 796 803 804 807 813 815 815 817 819 820
745 751 756 759 761 765 768 769 774 780 786 789 793 797 801 801 808 811 812 814 816 815
738 744 750 752 754 758 761 762 766 774 780 785 791 792 795 797 801 806 809 809 811 811
728 736 740 745 750 757 761 767 771 775 777 778 782 786 788 791 797 801 803 806 806 806
721 728 734 742 747 750 755 761 764 763 768 775 779 781 782 786 792 796 798 801 802 801
716 725 732 737 739 745 749 752 758 760 763 769 775 778 779 781 788 790 793 794 796 797
714 720 727 733 737 740 742 744 749 758 762 762 768 773 775 777 782 785 788 789 790 791
712 718 724 730 735 739 742 746 749 753 758 762 764 767 770 773 777 781 780 782 784 783
711 717 722 727 732 737 741 744 747 753 753 756 758 761 765 770 772 774 773 777 780 781